Regional Weather Roundup
Issued by NWS

Home | Current Version | Previous Version | Graphics & Text | Print | Product List | Glossary On
Versions: 1 2 3 4 5 6 7 8 9 10 11 12 13 14 15 16 17 18 19 20 21 22 23 24 25 26 27 28 29 30 31 32 33 34 35 36 37 38 39 40 41 42 43 44 45 46 47 48 49 50
000
ASUS43 KLSX 240057
RWRMO

WEATHER SUMMARY FOR MISSOURI
NATIONAL WEATHER SERVICE SPRINGFIELD MO
800 PM CDT SUN APR 23 2017

NOTE: "FAIR" INDICATES FEW OR NO CLOUDS BELOW 12,000 FEET WITH NO
       SIGNIFICANT WEATHER AND/OR OBSTRUCTIONS TO VISIBILITY.
       CURRENT SKY AND/OR WEATHER CONDITIONS ARE NOT AVAILABLE FOR
       CHILLICOTHE AND FARMINGTON.

MOZ001>031-035>038-043-044-053-054-240200-
...NORTHERN AND WESTERN MISSOURI...

CITY           SKY/WX    TMP DP  RH WIND       PRES   REMARKS
KANSAS CTY INT CLOUDY    64  34  32 SW5       29.99F
LEE`S SUMMIT   CLEAR     65  31  28 S6        30.01S
ST JOSEPH      CLOUDY    63  35  35 S9        29.98F
CHILLICOTHE      N/A     64  39  39 CALM      30.01S

$$
MOZ066>068-077>081-088>096-101>105-240200-
...SOUTHWEST MISSOURI...

CITY           SKY/WX    TMP DP  RH WIND       PRES   REMARKS
SPRINGFIELD    CLEAR     65  32  29 N5        30.02F
BRANSON        PTCLDY    63  37  39 NW7       30.04S

$$
MOZ032>034-039>042-045>050-055>058-069>072-240200-
...CENTRAL MISSOURI...

CITY           SKY/WX    TMP DP  RH WIND       PRES   REMARKS
COLUMBIA       NOT AVBL
JEFFERSON CITY CLEAR     65  39  38 CALM      30.00F
ROLLA          CLEAR     61  35  37 N3        30.01F

$$
MOZ051-052-059>065-240200-
...EAST CENTRAL MISSOURI...

CITY           SKY/WX    TMP DP  RH WIND       PRES   REMARKS
ST LOUIS INTL  PTCLDY    65  30  27 N7        30.00S

$$
MOZ072>076-082>087-097>100-106>115-240200-
...SOUTH CENTRAL AND SOUTHEAST MISSOURI...

CITY           SKY/WX    TMP DP  RH WIND       PRES   REMARKS
CAPE GIRARDEAU CLEAR     59  41  51 N7        29.94R
POPLAR BLUFF   CLEAR     61  44  53 N5        29.96R
WEST PLAINS    CLEAR     62  30  29 N7        30.01S

$$



USA.gov is the U.S. government's official web portal to all federal, state and local government web resources and services.